San Angelo, TX

6:24 PM CDT on March 27, 2017 (GMT -0500)
San Angelo Regional-Mathis

Weather History for KSJT - October, 2011

Change the Weather History Date:

Wednesday, October 12, 2011

  Actual Average Record
Temperature  
Mean Temperature 74 °F 67 °F  
Max Temperature 84 °F 80 °F 100 °F (1926)
Min Temperature 64 °F 55 °F 38 °F (1946)
Degree Days  
Heating Degree Days 0 2  
Month to date heating degree days 1 16  
Since 1 July heating degree days 1 25  
Cooling Degree Days 9 4  
Month to date cooling degree days 86 65  
Year to date cooling degree days 3632 2430  
Growing Degree Days 24 (Base 50)    
Moisture  
Dew Point 60 °F    
Average Humidity 61    
Maximum Humidity 87    
Minimum Humidity 34    
Precipitation  
Precipitation 0.00 in 0.10 in 3.92 in (1969)
Month to date precipitation 2.84 1.06  
Year to date precipitation 7.85 17.59  
Snow  
Snow 0.00 in 0.00 in 0.00 in (2002)
Month to date snowfall 0.0 0.0  
Since 1 July snowfall 0.0 0.0  
Snow Depth 0.00 in    
Sea Level Pressure  
Sea Level Pressure 29.79 in    
Wind  
Wind Speed 9 mph (West)    
Max Wind Speed 16 mph    
Max Gust Speed 26 mph    
Visibility 10 miles    
Events      
T = Trace of Precipitation, MM = Missing Value Source: NWS Daily Summary

Daily Weather History Graph

Daily Weather History Graph

Search for Another Location

Airport or City:

Trip Planner

Search our weather history database for the weather conditions in past years. The results will help you decide how hot, cold, wet, or windy it might be!

Date:

Astronomy

Oct. 12, 2011 Rise Set
Actual Time 7:42 AM CDT 7:13 PM CDT
Civil Twilight 7:18 AM CDT 7:38 PM CDT
Nautical Twilight 6:50 AM CDT 8:06 PM CDT
Astronomical Twilight 6:22 AM CDT 8:34 PM CDT
Moon 7:24 PM CDT (10/12) 8:12 AM CDT (10/12)
Length of Visible Light 12h 19m
Length of Day
11h 31m
Full, 100% of the Moon is Illuminated
Oct 12
Full
Oct 19
Last Quarter
Oct 26
New
Nov 2
First Quarter
Nov 10
Full

Hourly Weather History & Observations

Time (CDT) Temp. Heat Index Dew Point Humidity Pressure Visibility Wind Dir Wind Speed Gust Speed Precip Events Conditions
12:51 AM 71.1 °F - 63.0 °F 75% 29.75 in 10.0 mi South 11.5 mph - N/A   Clear
1:51 AM 70.0 °F - 63.0 °F 78% 29.74 in 10.0 mi SSW 11.5 mph - N/A   Clear
2:51 AM 70.0 °F - 63.0 °F 78% 29.74 in 10.0 mi SSW 9.2 mph 20.7 mph N/A   Clear
3:51 AM 70.0 °F - 63.0 °F 78% 29.73 in 10.0 mi SW 10.4 mph - N/A   Clear
4:51 AM 69.1 °F - 62.1 °F 78% 29.71 in 10.0 mi SSW 13.8 mph - N/A   Clear
5:51 AM 68.0 °F - 62.1 °F 81% 29.73 in 10.0 mi SW 10.4 mph - N/A   Clear
6:51 AM 66.0 °F - 61.0 °F 84% 29.74 in 10.0 mi SW 5.8 mph - N/A   Clear
7:51 AM 64.0 °F - 60.1 °F 87% 29.75 in 10.0 mi WSW 5.8 mph - N/A   Clear
9:51 AM 72.0 °F - 64.0 °F 76% 29.78 in 10.0 mi SW 15.0 mph - N/A   Clear
10:51 AM 75.9 °F - 63.0 °F 64% 29.78 in 10.0 mi SW 13.8 mph - N/A   Clear
11:51 AM 80.1 °F 80.9 °F 60.1 °F 50% 29.78 in 10.0 mi West 10.4 mph - N/A   Clear
12:51 PM 81.0 °F 81.1 °F 57.9 °F 45% 29.78 in 10.0 mi West 10.4 mph - N/A   Clear
1:51 PM 84.0 °F 82.9 °F 55.0 °F 37% 29.77 in 10.0 mi NW 9.2 mph - N/A   Clear
2:51 PM 84.0 °F 82.5 °F 53.1 °F 34% 29.76 in 10.0 mi NNW 12.7 mph - N/A   Clear
3:51 PM 84.0 °F 82.6 °F 54.0 °F 35% 29.77 in 10.0 mi NNW 12.7 mph - N/A   Clear
4:51 PM 84.0 °F 83.3 °F 57.0 °F 40% 29.78 in 10.0 mi NNW 10.4 mph - N/A   Clear
5:51 PM 82.4 °F 82.0 °F 57.2 °F 42% 29.86 in 10.0 mi North 8.1 mph - N/A   Clear
6:51 PM 80.1 °F 80.6 °F 57.9 °F 47% 29.82 in 10.0 mi North 9.2 mph - N/A   Clear
7:51 PM 73.9 °F - 61.0 °F 64% 29.86 in 10.0 mi NNE 5.8 mph - N/A   Clear
8:51 PM 72.0 °F - 61.0 °F 68% 29.89 in 10.0 mi Calm Calm - N/A   Clear
9:51 PM 70.0 °F - 61.0 °F 73% 29.91 in 10.0 mi WNW 4.6 mph - N/A   Clear
10:51 PM 68.0 °F - 60.1 °F 76% 29.92 in 10.0 mi WNW 3.5 mph - N/A   Clear
11:51 PM 68.0 °F - 60.1 °F 76% 29.93 in 10.0 mi North 3.5 mph - N/A   Clear